Regional Weather Roundup
Issued by NWS

Home | Current Version | Previous Version | Graphics & Text | Print | Product List | Glossary On
Versions: 1 2 3 4 5 6 7 8 9 10 11 12 13 14 15 16 17 18 19 20 21 22 23 24 25 26 27 28 29 30 31 32 33 34 35 36 37 38 39 40 41 42 43 44 45 46 47 48 49 50
000
ASUS43 KLSX 011659
RWRMO

WEATHER SUMMARY FOR MISSOURI
NATIONAL WEATHER SERVICE SPRINGFIELD MO
1100 AM CST SUN FEB 01 2015

NOTE: "FAIR" INDICATES FEW OR NO CLOUDS BELOW 12,000 FEET WITH NO
       SIGNIFICANT WEATHER AND/OR OBSTRUCTIONS TO VISIBILITY.
       CURRENT SKY AND/OR WEATHER CONDITIONS ARE NOT AVAILABLE FOR
       CHILLICOTHE AND FARMINGTON.

MOZ001>031-035>038-043-044-053-054-011800-
...NORTHERN AND WESTERN MISSOURI...

CITY           SKY/WX    TMP DP  RH WIND       PRES   REMARKS
KANSAS CTY INT SNOW      33  32  96 NW13G20   29.79R VSB 1/2 WCI  24
KANSAS C DTWN  FLURRIES  34  32  92 NW13      29.79R WCI  25
LEE`S SUMMIT   LGT SNOW  33  31  92 NW14      29.78R FOG     WCI  23
ST JOSEPH      LGT SNOW  30  27  88 NW24G35   29.83R FOG     WCI  16
CHILLICOTHE      N/A     34  32  92 NW6       29.76R WCI  29
KIRKSVILLE       N/A     33  33 100 N6        29.72S FOG     WCI  28

$$
MOZ066>068-077>081-088>096-101>105-011800-
...SOUTHWEST MISSOURI...

CITY           SKY/WX    TMP DP  RH WIND       PRES   REMARKS
SPRINGFIELD    LGT RAIN  44  41  89 W13G21    29.72S FOG
JOPLIN         CLOUDY    37  34  89 W22G29    29.83R WCI  26

$$
MOZ032>034-039>042-045>050-055>058-069>072-011800-
...CENTRAL MISSOURI...

CITY           SKY/WX    TMP DP  RH WIND       PRES   REMARKS
COLUMBIA       CLOUDY    36  36 100 SW3       29.69S FOG
JEFFERSON CITY CLOUDY    39  37  92 SW3       29.71S
ROLLA          CLOUDY    39  38  96 SW9       29.68S
SEDALIA        CLOUDY    38  36  92 W6        29.72R FOG
OSAGE BEACH    CLOUDY    41  37  87 SW6       29.71R

$$
MOZ051-052-059>065-011800-
...EAST CENTRAL MISSOURI...

CITY           SKY/WX    TMP DP  RH WIND       PRES   REMARKS
ST LOUIS INTL  LGT RAIN  39  36  89 S7        29.70F FOG
SPIRIT OF STL  LGT RAIN  38  37  97 CALM      29.69F FOG
ST CHARLES     LGT RAIN  37  36  96 CALM      29.70F FOG

$$
MOZ072>076-082>087-097>100-106>115-011800-
...SOUTH CENTRAL AND SOUTHEAST MISSOURI...

CITY           SKY/WX    TMP DP  RH WIND       PRES   REMARKS
CAPE GIRARDEAU CLOUDY    45  44  97 S7        29.74F FOG
FARMINGTON     CLOUDY    39  39 100 SW8       29.72F
POPLAR BLUFF   CLOUDY    44  41  89 SW3       29.73F FOG
WEST PLAINS    CLOUDY    46  43  89 W10G18    29.72F

$$



USA.gov is the U.S. government's official web portal to all federal, state and local government web resources and services.